Location: Arcueil
(48.7999°N, 2.3326°E)
Time: 11:34:10
(UTC+00:00)

ISS - Visible Passes

Search period start: 14 May 2025 00:00
Search period end: 24 May 2025 00:00
Orbit: 416 x 419 km, 51.6° (Epoch: 14 May)

Date Brightness Start Highest point End Pass type
(mag) Time Alt. Az. Time Alt. Az. Time Alt. Az.
14 May -3.0 21:01:28 10° W 21:04:47 55° N 21:08:05 10° ENE visible
14 May -3.3 22:38:30 10° WNW 22:41:50 59° N 22:42:21 51° NE visible
15 May -3.3 20:13:25 10° W 20:16:46 64° NNW 20:20:07 10° ENE visible
15 May -3.0 21:50:30 10° WNW 21:53:49 52° N 21:55:59 19° ENE visible
15 May -2.0 23:27:21 10° WNW 23:28:54 25° WNW 23:28:54 25° WNW visible
16 May -2.9 21:02:29 10° WNW 21:05:47 49° N 21:09:03 10° ENE visible
16 May -3.7 22:39:22 10° WNW 22:42:30 76° WNW 22:42:30 76° WNW visible
17 May -2.9 20:14:25 10° W 20:17:43 50° N 20:21:01 10° ENE visible
17 May -3.6 21:51:23 10° WNW 21:54:44 71° NNE 21:56:06 33° E visible
17 May -1.3 23:28:20 10° W 23:29:01 14° W 23:29:01 14° W visible
18 May -3.2 21:03:22 10° WNW 21:06:42 58° N 21:09:41 12° E visible
18 May -2.8 22:40:13 10° WNW 22:42:36 36° WSW 22:42:36 36° WSW visible
19 May -3.0 20:15:19 10° WNW 20:18:37 52° N 20:21:55 10° E visible
19 May -3.8 21:52:09 10° WNW 21:55:30 67° SSW 21:56:11 49° SE visible
20 May -3.8 21:04:06 10° WNW 21:07:28 89° NNE 21:09:47 19° ESE visible
20 May -1.7 22:41:17 10° W 22:42:41 18° WSW 22:42:41 18° WSW visible
21 May -3.5 20:16:02 10° WNW 20:19:24 70° NNE 20:22:45 10° E visible
21 May -2.8 21:52:59 10° W 21:56:01 32° SW 21:56:18 31° SSW visible
22 May -3.3 21:04:48 10° WNW 21:08:03 47° SSW 21:09:55 22° SE visible
23 May -3.7 20:16:40 10° WNW 20:20:01 69° SSW 20:23:21 10° ESE visible
23 May -1.6 21:54:19 10° W 21:56:18 15° SW 21:56:27 15° SW visible
